CCM69 LFKJ-LFML

Flight info

Callsign CCM69
Flight time 0h 42m
Altitude 24000
Route TINOT
Aircraft A20N/M-SDE2E3FGHIRWXY/LB1

Departure

Time 2026-04-23 20:30
Airport Ajaccio Napoléon Bonaparte airport (LFKJ)

Arrival

Time 2026-04-23 21:12
Airport Marseille Provence Airport (LFML)
Time Latitude Longitude Altitude Speed Heading
2026-04-23 20:09 41.91758 8.79433 23 ft 0 kts 345°
2026-04-23 20:21 41.91758 8.79434 22 ft 0 kts 345°
2026-04-23 20:22 41.91749 8.79438 21 ft 2 kts 337°
2026-04-23 20:22 41.91734 8.79444 21 ft 2 kts 345°
2026-04-23 20:22 41.91720 8.79451 21 ft 2 kts 318°
2026-04-23 20:23 41.91713 8.79468 21 ft 1 kts 291°
2026-04-23 20:23 41.91703 8.79480 20 ft 2 kts 346°
2026-04-23 20:23 41.91690 8.79480 21 ft 0 kts 20°
2026-04-23 20:23 41.91684 8.79476 21 ft 1 kts 27°
2026-04-23 20:24 41.91683 8.79475 21 ft 0 kts 25°
2026-04-23 20:26 41.91702 8.79487 20 ft 9 kts 24°
2026-04-23 20:26 41.91801 8.79549 20 ft 20 kts 25°
2026-04-23 20:26 41.91958 8.79648 20 ft 28 kts 25°
2026-04-23 20:26 41.92151 8.79769 20 ft 31 kts 25°
2026-04-23 20:27 41.92347 8.79889 20 ft 30 kts 24°
2026-04-23 20:27 41.92533 8.80005 20 ft 28 kts 26°
2026-04-23 20:27 41.92708 8.80116 21 ft 26 kts 26°
2026-04-23 20:27 41.92849 8.80263 22 ft 24 kts 44°
2026-04-23 20:28 41.92953 8.80413 23 ft 13 kts 64°
2026-04-23 20:28 41.92955 8.80500 23 ft 8 kts 104°
2026-04-23 20:28 41.92923 8.80563 23 ft 8 kts 159°
2026-04-23 20:28 41.92873 8.80551 23 ft 3 kts 204°
2026-04-23 20:29 41.92872 8.80550 23 ft 0 kts 204°
2026-04-23 20:30 41.92745 8.80472 22 ft 58 kts 205°
2026-04-23 20:30 41.91114 8.79444 147 ft 180 kts 206°
2026-04-23 20:30 41.89980 8.78692 846 ft 185 kts 208°
2026-04-23 20:31 41.89056 8.77549 1736 ft 183 kts 238°
2026-04-23 20:31 41.88493 8.76040 2401 ft 188 kts 246°
2026-04-23 20:31 41.87945 8.74367 2876 ft 204 kts 246°
2026-04-23 20:31 41.87317 8.72589 3342 ft 222 kts 244°
2026-04-23 20:32 41.86577 8.70656 3742 ft 246 kts 242°
2026-04-23 20:32 41.85732 8.68557 4283 ft 265 kts 242°
2026-04-23 20:32 41.84826 8.66356 4910 ft 279 kts 242°
2026-04-23 20:32 41.83881 8.64076 5742 ft 285 kts 242°
2026-04-23 20:33 41.82928 8.61767 6593 ft 289 kts 244°
2026-04-23 20:33 41.82381 8.59197 7384 ft 290 kts 274°
2026-04-23 20:33 41.82834 8.56598 8232 ft 287 kts 296°
2026-04-23 20:33 41.83594 8.54125 9021 ft 292 kts 296°
2026-04-23 20:34 41.84356 8.51598 9806 ft 297 kts 295°
2026-04-23 20:34 41.85113 8.49026 10574 ft 302 kts 295°
2026-04-23 20:34 41.85888 8.46364 11060 ft 317 kts 295°
2026-04-23 20:34 41.86713 8.43506 11436 ft 336 kts 295°
2026-04-23 20:35 41.87569 8.40520 11773 ft 354 kts 294°
2026-04-23 20:35 41.88458 8.37395 12074 ft 371 kts 294°
2026-04-23 20:35 41.89394 8.34092 12383 ft 387 kts 294°
2026-04-23 20:35 41.90358 8.30681 12972 ft 393 kts 293°
2026-04-23 20:36 41.91318 8.27267 13671 ft 396 kts 293°
2026-04-23 20:36 41.92292 8.23803 14357 ft 398 kts 293°
2026-04-23 20:36 41.93270 8.20320 15027 ft 401 kts 293°
2026-04-23 20:36 41.94246 8.16840 15667 ft 404 kts 293°
2026-04-23 20:37 41.95238 8.13304 16300 ft 406 kts 293°
2026-04-23 20:37 41.96234 8.09744 16914 ft 409 kts 292°
2026-04-23 20:37 41.97236 8.06156 17521 ft 412 kts 292°
2026-04-23 20:37 41.98237 8.02566 18122 ft 414 kts 293°
2026-04-23 20:38 41.99242 7.98961 18709 ft 416 kts 292°
2026-04-23 20:38 42.00251 7.95336 19258 ft 419 kts 292°
2026-04-23 20:38 42.01273 7.91655 19776 ft 422 kts 292°
2026-04-23 20:38 42.02298 7.87965 20277 ft 426 kts 292°
2026-04-23 20:39 42.03333 7.84233 20765 ft 429 kts 292°
2026-04-23 20:39 42.04369 7.80490 21242 ft 432 kts 292°
2026-04-23 20:39 42.05419 7.76683 21705 ft 436 kts 292°
2026-04-23 20:39 42.06471 7.72870 22074 ft 439 kts 292°
2026-04-23 20:40 42.07538 7.68998 22151 ft 439 kts 292°
2026-04-23 20:40 42.08583 7.65193 22155 ft 439 kts 292°
2026-04-23 20:40 42.09650 7.61305 22158 ft 439 kts 292°
2026-04-23 20:40 42.10704 7.57455 22158 ft 439 kts 292°
2026-04-23 20:41 42.11747 7.53641 22159 ft 439 kts 292°
2026-04-23 20:41 42.12797 7.49796 22160 ft 439 kts 292°
2026-04-23 20:41 42.13840 7.45974 22163 ft 439 kts 292°
2026-04-23 20:41 42.14896 7.42103 22166 ft 439 kts 292°
2026-04-23 20:42 42.15945 7.38246 22168 ft 439 kts 292°
2026-04-23 20:42 42.16982 7.34423 22170 ft 438 kts 291°
2026-04-23 20:42 42.18029 7.30560 22170 ft 439 kts 291°
2026-04-23 20:42 42.19076 7.26694 22170 ft 439 kts 291°
2026-04-23 20:43 42.20116 7.22849 22174 ft 439 kts 291°
2026-04-23 20:43 42.21152 7.19008 22173 ft 439 kts 291°
2026-04-23 20:43 42.22199 7.15119 22174 ft 439 kts 291°
2026-04-23 20:43 42.23228 7.11297 22178 ft 439 kts 291°
2026-04-23 20:44 42.24262 7.07448 22179 ft 438 kts 291°
2026-04-23 20:44 42.25293 7.03601 22179 ft 438 kts 291°
2026-04-23 20:44 42.26329 6.99733 22179 ft 438 kts 291°
2026-04-23 20:44 42.27362 6.95865 22173 ft 438 kts 291°
2026-04-23 20:45 42.28382 6.92040 22173 ft 438 kts 291°
2026-04-23 20:45 42.29424 6.88131 22171 ft 438 kts 291°
2026-04-23 20:45 42.30441 6.84299 22167 ft 438 kts 292°
2026-04-23 20:45 42.31464 6.80450 22169 ft 437 kts 292°
2026-04-23 20:46 42.32487 6.76591 22165 ft 436 kts 292°
2026-04-23 20:46 42.33501 6.72759 22168 ft 436 kts 292°
2026-04-23 20:46 42.34516 6.68918 22166 ft 435 kts 292°
2026-04-23 20:46 42.35534 6.65065 22167 ft 434 kts 292°
2026-04-23 20:47 42.36540 6.61253 22166 ft 434 kts 292°
2026-04-23 20:47 42.37558 6.57388 22166 ft 434 kts 292°
2026-04-23 20:47 42.38566 6.53549 22165 ft 433 kts 292°
2026-04-23 20:47 42.39566 6.49730 22167 ft 432 kts 292°
2026-04-23 20:48 42.40561 6.45931 22165 ft 432 kts 293°
2026-04-23 20:48 42.41557 6.42117 22166 ft 430 kts 292°
2026-04-23 20:48 42.42548 6.38323 22170 ft 429 kts 292°
2026-04-23 20:48 42.43545 6.34500 22168 ft 429 kts 292°
2026-04-23 20:49 42.44527 6.30726 22163 ft 430 kts 292°
2026-04-23 20:49 42.45531 6.26867 22164 ft 439 kts 292°
2026-04-23 20:49 42.46539 6.22984 22161 ft 442 kts 292°
2026-04-23 20:49 42.47566 6.19029 22167 ft 450 kts 292°
2026-04-23 20:50 42.48605 6.15013 22166 ft 451 kts 292°
2026-04-23 20:50 42.49628 6.11043 22165 ft 451 kts 292°
2026-04-23 20:50 42.50662 6.07030 22166 ft 450 kts 292°
2026-04-23 20:50 42.51681 6.03066 22166 ft 449 kts 292°
2026-04-23 20:51 42.52712 5.99048 22167 ft 448 kts 292°
2026-04-23 20:51 42.53728 5.95087 22169 ft 448 kts 292°
2026-04-23 20:51 42.54750 5.91094 22171 ft 453 kts 292°
2026-04-23 20:51 42.55777 5.87077 22168 ft 455 kts 292°
2026-04-23 20:52 42.56821 5.82977 22172 ft 456 kts 292°
2026-04-23 20:52 42.57845 5.78956 22173 ft 456 kts 292°
2026-04-23 20:52 42.58906 5.74942 22169 ft 456 kts 294°
2026-04-23 20:52 42.60260 5.71040 22156 ft 450 kts 306°
2026-04-23 20:53 42.62119 5.67664 22172 ft 448 kts 311°
2026-04-23 20:53 42.64110 5.64423 22174 ft 447 kts 312°
2026-04-23 20:53 42.66088 5.61203 22174 ft 447 kts 311°
2026-04-23 20:53 42.68057 5.57926 22176 ft 448 kts 311°
2026-04-23 20:54 42.69996 5.54629 22177 ft 448 kts 311°
2026-04-23 20:54 42.71932 5.51289 22177 ft 449 kts 310°
2026-04-23 20:54 42.73846 5.47957 21938 ft 449 kts 310°
2026-04-23 20:54 42.75726 5.44663 21423 ft 442 kts 310°
2026-04-23 20:55 42.77587 5.41391 20599 ft 439 kts 310°
2026-04-23 20:55 42.79457 5.38097 19830 ft 437 kts 310°
2026-04-23 20:55 42.81298 5.34850 19160 ft 437 kts 309°
2026-04-23 20:55 42.83410 5.31916 18401 ft 432 kts 325°
2026-04-23 20:56 42.85941 5.29836 17654 ft 430 kts 332°
2026-04-23 20:56 42.88561 5.27899 16951 ft 425 kts 332°
2026-04-23 20:56 42.91123 5.25994 16445 ft 416 kts 332°
2026-04-23 20:56 42.93620 5.24096 15704 ft 413 kts 331°
2026-04-23 20:57 42.96104 5.22168 15024 ft 409 kts 331°
2026-04-23 20:57 42.98535 5.20255 14394 ft 405 kts 330°
2026-04-23 20:57 43.00966 5.18329 13779 ft 400 kts 330°
2026-04-23 20:57 43.03421 5.16683 13161 ft 395 kts 339°
2026-04-23 20:58 43.05994 5.15413 12525 ft 392 kts 342°
2026-04-23 20:58 43.08566 5.14212 11913 ft 389 kts 342°
2026-04-23 20:58 43.11095 5.13007 11425 ft 382 kts 341°
2026-04-23 20:58 43.13568 5.11796 11150 ft 370 kts 341°
2026-04-23 20:59 43.15934 5.10617 10942 ft 357 kts 341°
2026-04-23 20:59 43.18221 5.09464 10733 ft 344 kts 341°
2026-04-23 20:59 43.20421 5.08347 10554 ft 332 kts 341°
2026-04-23 20:59 43.22542 5.07268 10403 ft 320 kts 341°
2026-04-23 21:00 43.24612 5.06213 10248 ft 309 kts 341°
2026-04-23 21:00 43.26572 5.05211 10113 ft 297 kts 341°
2026-04-23 21:00 43.28510 5.04223 9754 ft 295 kts 341°
2026-04-23 21:00 43.30414 5.03254 9391 ft 294 kts 341°
2026-04-23 21:01 43.32321 5.02305 9037 ft 291 kts 345°
2026-04-23 21:01 43.34298 5.01812 8684 ft 287 kts 358°
2026-04-23 21:01 43.36279 5.01815 8346 ft 284 kts
2026-04-23 21:01 43.38264 5.01942 8013 ft 282 kts
2026-04-23 21:02 43.40199 5.02068 7683 ft 280 kts
2026-04-23 21:02 43.42149 5.02160 7358 ft 278 kts 360°
2026-04-23 21:02 43.44011 5.01498 6966 ft 282 kts 330°
2026-04-23 21:02 43.45511 4.99789 6491 ft 287 kts 315°
2026-04-23 21:03 43.46935 4.97812 5986 ft 290 kts 315°
2026-04-23 21:03 43.48349 4.95859 5676 ft 286 kts 316°
2026-04-23 21:03 43.49747 4.93960 5376 ft 281 kts 316°
2026-04-23 21:03 43.51120 4.92116 5215 ft 271 kts 316°
2026-04-23 21:04 43.52442 4.90346 5128 ft 262 kts 317°
2026-04-23 21:04 43.53731 4.88626 5062 ft 256 kts 317°
2026-04-23 21:04 43.54997 4.86937 5028 ft 251 kts 317°
2026-04-23 21:04 43.56231 4.85315 5010 ft 237 kts 322°
2026-04-23 21:05 43.57687 4.84405 4991 ft 230 kts 360°
2026-04-23 21:05 43.59151 4.84950 5002 ft 219 kts 39°
2026-04-23 21:05 43.60095 4.86521 5019 ft 211 kts 63°
2026-04-23 21:05 43.60772 4.88309 5023 ft 209 kts 63°
2026-04-23 21:06 43.61472 4.90111 4918 ft 214 kts 62°
2026-04-23 21:06 43.62178 4.91916 4574 ft 216 kts 69°
2026-04-23 21:06 43.62339 4.93931 4262 ft 216 kts 102°
2026-04-23 21:06 43.61676 4.95767 4029 ft 214 kts 127°
2026-04-23 21:07 43.60714 4.97286 4006 ft 207 kts 131°
2026-04-23 21:07 43.59720 4.98721 4005 ft 207 kts 131°
2026-04-23 21:07 43.58712 5.00144 3899 ft 207 kts 132°
2026-04-23 21:07 43.57706 5.01560 3706 ft 202 kts 132°
2026-04-23 21:08 43.56746 5.02914 3450 ft 197 kts 131°
2026-04-23 21:08 43.55801 5.04253 3158 ft 194 kts 131°
2026-04-23 21:08 43.54870 5.05575 2875 ft 190 kts 131°
2026-04-23 21:08 43.53968 5.06857 2607 ft 187 kts 132°
2026-04-23 21:09 43.53073 5.08129 2348 ft 182 kts 131°
2026-04-23 21:09 43.52197 5.09375 2100 ft 177 kts 132°
2026-04-23 21:09 43.51360 5.10564 1894 ft 170 kts 132°
2026-04-23 21:09 43.50546 5.11722 1672 ft 162 kts 132°
2026-04-23 21:10 43.49787 5.12801 1454 ft 153 kts 133°
2026-04-23 21:10 43.49072 5.13818 1241 ft 142 kts 133°
2026-04-23 21:10 43.48406 5.14766 1061 ft 139 kts 133°
2026-04-23 21:10 43.47734 5.15722 887 ft 139 kts 133°
2026-04-23 21:11 43.47067 5.16670 705 ft 137 kts 133°
2026-04-23 21:11 43.46398 5.17622 517 ft 137 kts 134°
2026-04-23 21:11 43.45741 5.18558 332 ft 136 kts 134°
2026-04-23 21:11 43.45081 5.19496 149 ft 136 kts 135°
2026-04-23 21:12 43.44426 5.20422 19 ft 134 kts 135°
2026-04-23 21:12 43.43916 5.21136 27 ft 82 kts 134°
2026-04-23 21:12 43.43548 5.21661 40 ft 70 kts 133°
2026-04-23 21:12 43.43346 5.21988 49 ft 25 kts 112°
2026-04-23 21:13 43.43340 5.22207 53 ft 21 kts 73°
2026-04-23 21:13 43.43435 5.22264 52 ft 16 kts 341°
2026-04-23 21:13 43.43540 5.22187 49 ft 18 kts 330°
2026-04-23 21:13 43.43657 5.22093 46 ft 20 kts 329°
2026-04-23 21:14 43.43785 5.22053 42 ft 20 kts 39°
2026-04-23 21:14 43.43802 5.22222 44 ft 18 kts 120°
2026-04-23 21:14 43.43702 5.22286 47 ft 16 kts 203°
2026-04-23 21:14 43.43729 5.22202 45 ft 15 kts 32°
2026-04-23 21:15 43.43766 5.22329 46 ft 12 kts 56°
2026-04-23 21:15 43.43810 5.22353 46 ft 1 kts
2026-04-23 21:15 43.43812 5.22353 46 ft 0 kts